TimeMST,TemperatureF,Dew PointF,Humidity,Sea Level PressureIn,VisibilityMPH,Wind Direction,Wind SpeedMPH,Gust SpeedMPH,PrecipitationIn,Events,Conditions,WindDirDegrees,DateUTC
12:48 AM,37.4,37.4,100,29.79,10.0,NE,25.3,-,N/A,,Overcast,50,2013-02-20 07:48:00
12:51 AM,37.0,37.0,100,29.75,10.0,NE,29.9,-,N/A,,Overcast,40,2013-02-20 07:51:00
1:51 AM,39.0,34.0,82,29.81,10.0,NE,24.2,29.9,N/A,,Scattered Clouds,40,2013-02-20 08:51:00
2:51 AM,39.0,34.0,82,29.81,10.0,NE,20.7,-,N/A,,Clear,50,2013-02-20 09:51:00
3:51 AM,39.9,33.1,77,29.80,10.0,NE,16.1,21.9,N/A,,Clear,50,2013-02-20 10:51:00
4:51 AM,39.9,32.0,73,29.81,10.0,ENE,11.5,-,N/A,,Clear,60,2013-02-20 11:51:00
5:51 AM,36.0,32.0,86,29.75,10.0,NE,17.3,-,N/A,,Clear,50,2013-02-20 12:51:00
6:51 AM,36.0,30.9,82,29.63,8.0,NE,11.5,-,N/A,,Clear,50,2013-02-20 13:51:00
7:51 AM,42.1,33.1,70,29.84,9.0,ENE,8.1,-,N/A,,Clear,70,2013-02-20 14:51:00
8:51 AM,44.1,34.0,68,29.84,9.0,NE,4.6,-,N/A,,Clear,50,2013-02-20 15:51:00
9:51 AM,48.9,33.1,54,29.68,9.0,SW,11.5,-,N/A,,Clear,230,2013-02-20 16:51:00
10:51 AM,53.1,33.1,47,29.66,9.0,WSW,20.7,-,N/A,,Clear,240,2013-02-20 17:51:00
11:51 AM,55.9,34.0,44,29.61,9.0,WSW,23.0,-,N/A,,Clear,240,2013-02-20 18:51:00
12:51 PM,59.0,28.0,31,29.56,9.0,WSW,21.9,39.1,N/A,,Clear,240,2013-02-20 19:51:00
1:51 PM,60.1,27.0,28,29.50,8.0,WSW,25.3,-,N/A,,Clear,240,2013-02-20 20:51:00
2:51 PM,60.1,24.1,25,29.47,8.0,WSW,23.0,32.2,N/A,,Clear,240,2013-02-20 21:51:00
3:51 PM,57.9,25.0,28,29.47,7.0,WSW,24.2,-,N/A,,Clear,250,2013-02-20 22:51:00
4:51 PM,53.1,21.9,30,29.48,6.0,West,18.4,29.9,N/A,,Haze,260,2013-02-20 23:51:00
5:51 PM,50.0,21.9,33,29.53,7.0,WSW,21.9,-,N/A,,Overcast,250,2013-02-21 00:51:00
6:29 PM,48.9,21.9,35,29.62,4.0,West,18.4,29.9,N/A,,Haze,260,2013-02-21 01:29:00
6:42 PM,48.9,21.9,35,29.62,4.0,West,20.7,31.1,N/A,,Haze,260,2013-02-21 01:42:00
6:51 PM,48.0,19.9,33,29.56,4.0,West,25.3,32.2,N/A,,Haze,270,2013-02-21 01:51:00
7:51 PM,46.9,19.9,34,29.55,5.0,West,19.6,33.4,N/A,,Haze,260,2013-02-21 02:51:00
8:42 PM,46.0,19.9,35,29.63,3.0,West,28.8,36.8,N/A,,Haze,260,2013-02-21 03:42:00
8:51 PM,46.0,21.0,37,29.55,3.0,WSW,27.6,35.7,N/A,,Haze,250,2013-02-21 03:51:00
9:11 PM,45.0,21.9,40,29.64,2.5,WSW,34.5,44.9,N/A,,Haze,240,2013-02-21 04:11:00
9:18 PM,44.1,25.0,47,29.64,3.0,West,46.0,55.2,N/A,,Haze,260,2013-02-21 04:18:00
9:51 PM,36.0,27.0,70,29.62,8.0,West,43.7,55.2,N/A,,Overcast,260,2013-02-21 04:51:00
10:51 PM,34.0,27.0,75,29.60,9.0,West,46.0,54.1,N/A,,Overcast,260,2013-02-21 05:51:00
11:51 PM,32.0,21.9,66,29.63,10.0,West,44.9,58.7,N/A,,Overcast,260,2013-02-21 06:51:00